• în România
  • Lista ţărilor
  • Pe 7 zile
  • Temperatura apei
  • Hartă satelitară
  • Meteo pe hartă
  • Widget-uri
  • user-avatar
    Intrare

    Meteo pe oră la Ondjiwa

    Astăzi, 21 Mai, Luni

    Timp Temperatura Precipitaţii Vânt Presiune Umiditate
    00:00 +20°C° 0 mm 2 m/s 667 mmHg 29%
    01:00 +19°C° 0 mm 2 m/s 667 mmHg 28%
    02:00 +19°C° 0 mm 2 m/s 667 mmHg 27%
    03:00 +18°C° 0 mm 2 m/s 667 mmHg 26%
    04:00 +17°C° 0 mm 2 m/s 667 mmHg 26%
    05:00 +18°C° 0 mm 1 m/s 667 mmHg 26%
    06:00 +18°C° 0 mm 1 m/s 667 mmHg 27%
    07:00 +18°C° 0 mm 1 m/s 668 mmHg 27%
    08:00 +22°C° 0 mm 1 m/s 668 mmHg 24%
    09:00 +25°C° 0 mm 1 m/s 669 mmHg 20%
    10:00 +28°C° 0 mm 1 m/s 670 mmHg 17%
    11:00 +30°C° 0 mm 1 m/s 670 mmHg 17%
    12:00 +31°C° 0 mm 1 m/s 670 mmHg 17%
    13:00 +33°C° 0 mm 1 m/s 669 mmHg 16%
    14:00 +32°C° 0 mm 1 m/s 669 mmHg 16%
    15:00 +32°C° 0 mm 1 m/s 668 mmHg 16%
    16:00 +31°C° 0 mm 1 m/s 668 mmHg 16%
    17:00 +29°C° 0 mm 2 m/s 667 mmHg 19%
    18:00 +26°C° 0 mm 2 m/s 667 mmHg 22%
    19:00 +24°C° 0 mm 2 m/s 667 mmHg 24%
    20:00 +23°C° 0 mm 2 m/s 667 mmHg 25%
    21:00 +23°C° 0 mm 2 m/s 668 mmHg 26%
    22:00 +21°C° 0 mm 2 m/s 668 mmHg 27%
    23:00 +20°C° 0 mm 2 m/s 668 mmHg 28%

    Mâine, 22 Mai, Marţi

    Timp Temperatura Precipitaţii Vânt Presiune Umiditate
    00:00 +20°C° 0 mm 2 m/s 668 mmHg 29%
    01:00 +19°C° 0 mm 2 m/s 668 mmHg 30%
    02:00 +20°C° 0 mm 1 m/s 668 mmHg 32%
    03:00 +19°C° 0 mm 1 m/s 668 mmHg 34%
    04:00 +19°C° 0 mm 1 m/s 667 mmHg 36%
    05:00 +19°C° 0 mm 1 m/s 668 mmHg 38%
    06:00 +19°C° 0 mm 1 m/s 668 mmHg 39%
    07:00 +19°C° 0 mm 1 m/s 668 mmHg 40%
    08:00 +22°C° 0 mm 1 m/s 669 mmHg 36%
    09:00 +25°C° 0 mm 2 m/s 670 mmHg 32%
    10:00 +28°C° 0 mm 2 m/s 671 mmHg 27%
    11:00 +29°C° 0 mm 2 m/s 671 mmHg 25%
    12:00 +31°C° 0 mm 3 m/s 670 mmHg 22%
    13:00 +33°C° 0 mm 3 m/s 670 mmHg 20%
    14:00 +32°C° 0 mm 2 m/s 670 mmHg 20%
    15:00 +32°C° 0 mm 2 m/s 669 mmHg 19%
    16:00 +31°C° 0 mm 2 m/s 669 mmHg 19%
    17:00 +29°C° 0 mm 2 m/s 669 mmHg 22%
    18:00 +27°C° 0 mm 1 m/s 669 mmHg 25%
    19:00 +25°C° 0 mm 1 m/s 668 mmHg 28%
    20:00 +24°C° 0 mm 1 m/s 669 mmHg 29%
    21:00 +24°C° 0 mm 1 m/s 669 mmHg 29%
    22:00 +24°C° 0 mm 1 m/s 670 mmHg 29%
    23:00 +23°C° 0 mm 2 m/s 670 mmHg 31%

    Poimâine, 23 Mai, Miercuri

    Timp Temperatura Precipitaţii Vânt Presiune Umiditate
    00:00 +21°C° 0 mm 2 m/s 669 mmHg 33%
    01:00 +19°C° 0 mm 2 m/s 669 mmHg 35%
    02:00 +19°C° 0 mm 2 m/s 669 mmHg 36%
    03:00 +18°C° 0 mm 2 m/s 669 mmHg 38%
    04:00 +18°C° 0 mm 1 m/s 669 mmHg 40%
    05:00 +18°C° 0 mm 1 m/s 669 mmHg 41%
    06:00 +18°C° 0 mm 1 m/s 669 mmHg 42%
    07:00 +18°C° 0 mm 1 m/s 670 mmHg 43%
    08:00 +20°C° 0 mm 2 m/s 671 mmHg 36%
    09:00 +25°C° 0 mm 3 m/s 672 mmHg 29%
    10:00 +29°C° 0 mm 4 m/s 673 mmHg 22%
    11:00 +30°C° 0 mm 4 m/s 672 mmHg 20%
    12:00 +32°C° 0 mm 4 m/s 672 mmHg 18%
    13:00 +33°C° 0 mm 4 m/s 671 mmHg 15%
    14:00 +33°C° 0 mm 4 m/s 671 mmHg 16%
    15:00 +32°C° 0 mm 4 m/s 670 mmHg 16%
    16:00 +31°C° 0 mm 3 m/s 670 mmHg 16%
    17:00 +29°C° 0 mm 3 m/s 670 mmHg 20%
    18:00 +26°C° 0 mm 2 m/s 670 mmHg 23%
    19:00 +23°C° 0 mm 2 m/s 670 mmHg 27%
    20:00 +23°C° 0 mm 2 m/s 670 mmHg 29%
    21:00 +21°C° 0 mm 2 m/s 670 mmHg 30%
    22:00 +20°C° 0 mm 2 m/s 670 mmHg 32%
    23:00 +19°C° 0 mm 2 m/s 670 mmHg 34%

    24 Mai, Joi

    Timp Temperatura Precipitaţii Vânt Presiune Umiditate
    00:00 +19°C° 0 mm 2 m/s 670 mmHg 36%
    01:00 +18°C° 0 mm 2 m/s 669 mmHg 38%
    02:00 +17°C° 0 mm 2 m/s 669 mmHg 40%
    03:00 +18°C° 0 mm 1 m/s 669 mmHg 42%
    04:00 +16°C° 0 mm 1 m/s 669 mmHg 43%
    05:00 +16°C° 0 mm 1 m/s 669 mmHg 45%
    06:00 +16°C° 0 mm 1 m/s 669 mmHg 46%
    07:00 +16°C° 0 mm 1 m/s 670 mmHg 47%
    08:00 +20°C° 0 mm 1 m/s 671 mmHg 40%
    09:00 +24°C° 0 mm 2 m/s 671 mmHg 33%
    10:00 +27°C° 0 mm 2 m/s 672 mmHg 26%
    11:00 +28°C° 0 mm 3 m/s 672 mmHg 23%
    12:00 +30°C° 0 mm 3 m/s 671 mmHg 20%
    13:00 +32°C° 0 mm 4 m/s 670 mmHg 17%
    14:00 +32°C° 0 mm 4 m/s 670 mmHg 17%
    15:00 +31°C° 0 mm 3 m/s 670 mmHg 17%
    16:00 +31°C° 0 mm 3 m/s 669 mmHg 17%
    17:00 +28°C° 0 mm 3 m/s 669 mmHg 20%
    18:00 +26°C° 0 mm 2 m/s 669 mmHg 23%
    19:00 +23°C° 0 mm 2 m/s 669 mmHg 26%
    20:00 +21°C° 0 mm 2 m/s 669 mmHg 27%
    21:00 +20°C° 0 mm 2 m/s 669 mmHg 28%
    22:00 +21°C° 0 mm 1 m/s 669 mmHg 29%
    23:00 +19°C° 0 mm 2 m/s 669 mmHg 31%

    25 Mai, Vineri

    Timp Temperatura Precipitaţii Vânt Presiune Umiditate
    00:00 +18°C° 0 mm 2 m/s 669 mmHg 33%
    01:00 +17°C° 0 mm 2 m/s 668 mmHg 36%
    02:00 +17°C° 0 mm 2 m/s 668 mmHg 40%
    03:00 +16°C° 0 mm 2 m/s 668 mmHg 44%
    04:00 +15°C° 0 mm 1 m/s 668 mmHg 48%
    05:00 +15°C° 0 mm 1 m/s 668 mmHg 51%
    06:00 +15°C° 0 mm 1 m/s 669 mmHg 53%
    07:00 +15°C° 0 mm 1 m/s 669 mmHg 56%
    08:00 +19°C° 0 mm 2 m/s 670 mmHg 46%
    09:00 +24°C° 0 mm 3 m/s 671 mmHg 37%
    10:00 +28°C° 0 mm 4 m/s 671 mmHg 28%
    11:00 +29°C° 0 mm 4 m/s 671 mmHg 24%
    12:00 +30°C° 0 mm 4 m/s 670 mmHg 21%
    13:00 +32°C° 0 mm 4 m/s 670 mmHg 18%
    14:00 +32°C° 0 mm 4 m/s 669 mmHg 18%
    15:00 +32°C° 0 mm 4 m/s 669 mmHg 19%
    16:00 +30°C° 0 mm 4 m/s 669 mmHg 19%
    17:00 +28°C° 0 mm 3 m/s 669 mmHg 23%
    18:00 +25°C° 0 mm 3 m/s 668 mmHg 26%
    19:00 +23°C° 0 mm 2 m/s 668 mmHg 30%
    20:00 +21°C° 0 mm 2 m/s 668 mmHg 32%
    21:00 +20°C° 0 mm 2 m/s 668 mmHg 33%
    22:00 +19°C° 0 mm 2 m/s 669 mmHg 35%
    23:00 +19°C° 0 mm 2 m/s 668 mmHg 37%

    26 Mai, Sâmbătă

    Timp Temperatura Precipitaţii Vânt Presiune Umiditate
    00:00 +18°C° 0 mm 2 m/s 668 mmHg 39%
    01:00 +18°C° 0 mm 2 m/s 668 mmHg 40%
    02:00 +17°C° 0 mm 2 m/s 668 mmHg 44%
    03:00 +17°C° 0 mm 2 m/s 668 mmHg 47%
    04:00 +16°C° 0 mm 2 m/s 668 mmHg 50%
    05:00 +16°C° 0 mm 2 m/s 668 mmHg 52%
    06:00 +16°C° 0 mm 2 m/s 669 mmHg 54%
    07:00 +16°C° 0 mm 2 m/s 669 mmHg 56%
    08:00 +20°C° 0 mm 3 m/s 670 mmHg 47%
    09:00 +23°C° 0 mm 4 m/s 671 mmHg 38%
    10:00 +28°C° 0 mm 5 m/s 671 mmHg 28%
    11:00 +29°C° 0 mm 5 m/s 671 mmHg 26%
    12:00 +30°C° 0 mm 5 m/s 670 mmHg 23%
    13:00 +32°C° 0 mm 5 m/s 670 mmHg 20%
    14:00 +32°C° 0 mm 4 m/s 669 mmHg 20%
    15:00 +32°C° 0 mm 4 m/s 669 mmHg 20%
    16:00 +30°C° 0 mm 4 m/s 669 mmHg 21%
    17:00 +28°C° 0 mm 3 m/s 669 mmHg 24%
    18:00 +25°C° 0 mm 3 m/s 669 mmHg 28%
    19:00 +23°C° 0 mm 2 m/s 669 mmHg 32%
    20:00 +21°C° 0 mm 2 m/s 669 mmHg 33%
    21:00 +20°C° 0 mm 2 m/s 669 mmHg 35%
    22:00 +19°C° 0 mm 2 m/s 669 mmHg 36%
    23:00 +19°C° 0 mm 2 m/s 669 mmHg 38%
    Arată mai mult